| time (UTC) | temp F | wind direction | speed knots | gust knots | rain 1hr in | rain 24hr in | rain mn in | humidity % | barometer mb |
| 20260505113052 | 38 | 350 | 0.9 | 2.6 | 0.00 | 0.00 | 0.00 | 82 | 1014.0 |
| 20260505111552 | 38 | 350 | 0.9 | 3.5 | 0.00 | 0.00 | 0.00 | 83 | 1013.9 |
| 20260505101553 | 38 | 350 | 0.9 | 2.6 | 0.00 | 0.00 | 0.00 | 82 | 1014.1 |
| 20260505100057 | 38 | 350 | 0.9 | 2.6 | 0.00 | 0.00 | 0.00 | 82 | 1014.2 |
| 20260505094556 | 38 | 350 | 0.9 | 3.5 | 0.00 | 0.00 | 0.00 | 82 | 1014.1 |
| 20260505093058 | 38 | 350 | 1.7 | 8.7 | 0.00 | 0.00 | 0.00 | 86 | 1014.5 |
| 20260505091552 | 38 | 350 | 3.5 | 7.8 | 0.00 | 0.00 | 0.00 | 88 | 1014.5 |
| 20260505090053 | 38 | 350 | 1.7 | 4.3 | 0.00 | 0.00 | 0.00 | 88 | 1014.5 |
| 20260505084551 | 38 | 350 | 1.7 | 4.3 | 0.00 | 0.00 | 0.00 | 87 | 1014.5 |
| 20260505083053 | 38 | 350 | 1.7 | 3.5 | 0.00 | 0.00 | 0.00 | 86 | 1014.5 |
| 20260505081604 | 38 | 350 | 1.7 | 7.0 | 0.00 | 0.00 | 0.00 | 85 | 1014.6 |
| 20260505080058 | 39 | 350 | 3.5 | 8.7 | 0.00 | 0.00 | 0.00 | 83 | 1014.8 |
| 20260505074602 | 40 | 350 | 4.3 | 12.2 | 0.00 | 0.00 | 0.00 | 77 | 1014.5 |
| 20260505071600 | 41 | 350 | 1.7 | 9.6 | 0.00 | 0.00 | 0.00 | 71 | 1014.5 |
| 20260505070052 | 42 | 350 | 3.5 | 7.0 | 0.00 | 0.00 | 0.00 | 69 | 1014.4 |
| 20260505064552 | 42 | 350 | 2.6 | 5.2 | 0.00 | 0.00 | 0.00 | 67 | 1014.3 |
| 20260505063048 | 42 | 350 | 1.7 | 4.3 | 0.00 | 0.00 | 0.00 | 64 | 1014.1 |
| 20260505061556 | 42 | 350 | 1.7 | 3.5 | 0.00 | 0.00 | 0.00 | 64 | 1014.1 |
| 20260505060052 | 42 | 350 | 1.7 | 4.3 | 0.00 | 0.00 | 0.00 | 62 | 1014.1 |
| 20260505054622 | 43 | 350 | 2.6 | 5.2 | 0.00 | 0.00 | 0.00 | 61 | 1014.2 |
| 20260505053103 | 43 | 350 | 2.6 | 5.2 | 0.00 | 0.00 | 0.00 | 60 | 1014.4 |
| 20260505051552 | 43 | 350 | 4.3 | 8.7 | 0.00 | 0.00 | 0.00 | 60 | 1014.4 |
| 20260505041556 | 45 | 350 | 5.2 | 9.6 | 0.00 | 0.00 | 0.00 | 55 | 1014.2 |
| 20260505040056 | 45 | 350 | 2.6 | 7.0 | 0.00 | 0.00 | 0.00 | 57 | 1014.2 |
| 20260505034547 | 45 | 350 | 3.5 | 7.0 | 0.00 | 0.00 | 0.00 | 57 | 1013.8 |
| 20260505033050 | 45 | 350 | 2.6 | 5.2 | 0.00 | 0.00 | 0.00 | 57 | 1013.9 |
| 20260505031605 | 45 | 350 | 2.6 | 7.0 | 0.00 | 0.00 | 0.00 | 57 | 1013.8 |
| 20260505030049 | 45 | 350 | 2.6 | 5.2 | 0.00 | 0.00 | 0.00 | 56 | 1013.7 |
| 20260505024552 | 45 | 350 | 1.7 | 4.3 | 0.00 | 0.00 | 0.00 | 55 | 1013.6 |
| 20260505023108 | 45 | 350 | 2.6 | 7.8 | 0.00 | 0.00 | 0.00 | 55 | 1013.4 |
| 20260505021549 | 45 | 350 | 2.6 | 5.2 | 0.00 | 0.00 | 0.00 | 54 | 1013.2 |
| 20260505020049 | 46 | 350 | 3.5 | 7.8 | 0.00 | 0.00 | 0.00 | 53 | 1013.1 |
| 20260505014601 | 46 | 350 | 5.2 | 9.6 | 0.00 | 0.00 | 0.00 | 53 | 1013.1 |
| 20260505013106 | 46 | 350 | 4.3 | 8.7 | 0.00 | 0.00 | 0.00 | 52 | 1013.0 |
| 20260505011551 | 47 | 350 | 5.2 | 10.4 | 0.00 | 0.00 | 0.00 | 50 | 1013.0 |
| 20260505010052 | 47 | 350 | 6.1 | 9.6 | 0.00 | 0.00 | 0.00 | 50 | 1012.8 |
| 20260505004555 | 48 | 350 | 4.3 | 10.4 | 0.00 | 0.00 | 0.00 | 51 | 1012.7 |
| 20260505003051 | 48 | 350 | 6.1 | 11.3 | 0.00 | 0.00 | 0.00 | 50 | 1012.9 |
| 20260505001559 | 48 | 350 | 5.2 | 9.6 | 0.00 | 0.00 | 0.00 | 49 | 1012.6 |
| 20260505000113 | 49 | 317 | 7.0 | 17.4 | 0.00 | 0.00 | 0.00 | 48 | 1012.5 |
| 20260504234550 | 50 | 340 | 8.7 | 16.5 | 0.00 | 0.00 | 0.00 | 46 | 1012.1 |
| 20260504233057 | 51 | 360 | 7.0 | 15.6 | 0.00 | 0.00 | 0.00 | 47 | 1012.0 |
| 20260504231553 | 52 | 28 | 8.7 | 14.8 | 0.00 | 0.00 | 0.00 | 47 | 1011.7 |
| 20260504230106 | 53 | 29 | 7.8 | 12.2 | 0.00 | 0.00 | 0.00 | 46 | 1011.4 |
| 20260504224556 | 53 | 14 | 7.0 | 13.9 | 0.00 | 0.00 | 0.00 | 46 | 1011.3 |
| 20260504223104 | 54 | 338 | 8.7 | 17.4 | 0.00 | 0.00 | 0.00 | 45 | 1011.3 |
| 20260504221600 | 54 | 360 | 7.8 | 15.6 | 0.00 | 0.00 | 0.00 | 46 | 1011.4 |
| 20260504220058 | 55 | 9 | 7.0 | 13.0 | 0.00 | 0.00 | 0.00 | 45 | 1011.4 |
| 20260504214549 | 54 | 31 | 6.1 | 11.3 | 0.00 | 0.00 | 0.00 | 44 | 1011.5 |
| 20260504213050 | 55 | 32 | 7.0 | 11.3 | 0.00 | 0.00 | 0.00 | 46 | 1011.6 |
| 20260504211550 | 54 | 55 | 3.5 | 9.6 | 0.00 | 0.00 | 0.00 | 46 | 1011.9 |
| 20260504210055 | 53 | 4 | 4.3 | 10.4 | 0.00 | 0.00 | 0.00 | 47 | 1011.9 |
| 20260504204549 | 52 | 30 | 3.5 | 13.0 | 0.00 | 0.00 | 0.00 | 48 | 1012.1 |
| 20260504203101 | 52 | 41 | 5.2 | 11.3 | 0.00 | 0.00 | 0.00 | 46 | 1012.3 |
| 20260504201549 | 53 | 350 | 5.2 | 10.4 | 0.00 | 0.00 | 0.00 | 46 | 1012.3 |
| 20260504200052 | 52 | 1 | 4.3 | 11.3 | 0.00 | 0.00 | 0.00 | 48 | 1012.5 |
| 20260504194549 | 52 | 3 | 4.3 | 13.0 | 0.00 | 0.00 | 0.00 | 47 | 1012.5 |
| 20260504193049 | 52 | 345 | 7.0 | 10.4 | 0.00 | 0.00 | 0.00 | 47 | 1012.7 |
| 20260504191602 | 52 | 340 | 5.2 | 12.2 | 0.00 | 0.00 | 0.00 | 48 | 1012.9 |
| 20260504190049 | 52 | 28 | 7.0 | 13.0 | 0.00 | 0.00 | 0.00 | 46 | 1012.9 |
| 20260504184551 | 53 | 7 | 7.0 | 14.8 | 0.00 | 0.00 | 0.00 | 47 | 1013.0 |
| 20260504183059 | 53 | 18 | 6.1 | 12.2 | 0.00 | 0.00 | 0.00 | 47 | 1013.2 |
| 20260504181556 | 52 | 350 | 5.2 | 13.9 | 0.00 | 0.00 | 0.00 | 49 | 1013.2 |
| 20260504174552 | 50 | 355 | 7.8 | 15.6 | 0.00 | 0.00 | 0.00 | 51 | 1013.5 |
| 20260504173052 | 51 | 330 | 4.3 | 12.2 | 0.00 | 0.00 | 0.00 | 52 | 1013.3 |
| 20260504171551 | 51 | 4 | 6.1 | 13.9 | 0.00 | 0.00 | 0.00 | 51 | 1013.3 |